Weather in Goris

Armenia     39°30′18″N   46°20′39″E
temp.,
°C
wind,
m/s
gust,
m/s
humid.,
%
clouds,
%
prec.,
mm/h
press.,
hPa
HPBL,
m
10 may, mon
mon1001:00+6sse129770 0.4 101377
04:00+7se3410097 1.3 1012265
07:00+6se3399100 0.1 1014245
10:00+3se3399100 0.4 1018324
13:00+1se2299100 0.2 1020294
16:00+2ese2298100 0.4 1019297
19:00+2se2299100 0.6 1020231
22:00+1ese2299100 1.1 1022275
11 may, tue
tue1101:00+1ese2298100 0.1 1021195
04:00+1ese129792 0.1 1020186
07:00+1se219581 0.0 1021217
10:00+4ese218047 0.1 1018517
13:00+9ese337231 0.0 1015687
16:00+10ese437642 0.0 1014582
19:00+7ese219059 0.0 1015240
22:00+6n009026 0.0 101655
12 may, wed
wed1201:00+4wnw11865 0.0 101610
04:00+4wnw11826 0.0 101622
07:00+7wnw22720 0.0 101637
10:00+14se12520 0.0 1014722
13:00+17sse25470 0.0 10131619
16:00+17se25490 0.0 10131514
19:00+12e118714 0.2 1016101
22:00+8n01878 0.2 101811
13 may, thu
thu1301:00+8wnw227191 0.0 101815
04:00+8wnw33645 0.0 101718
07:00+10wnw22652 0.0 101720
10:00+15ese21580 0.0 1016483
13:00+17ese335914 0.4 10161052
16:00+17e32612 1.9 1015938
19:00+13ese23863 1.3 1018104
22:00+10wnw22823 1.3 101917
14 may, fri
fri1401:00+9wnw327319 0.0 101916
04:00+8wnw326616 0.0 101916
07:00+10wnw11690 0.0 102014
10:00+15ese32661 0.1 1019577
13:00+17ese33530 0.1 10181084
16:00+17ese3356100 0.2 10171030
19:00+10wnw4481100 0.4 1021123
22:00+9wnw22610 0.4 102117